Tabellarische Ansicht des 26.7.2011


Die einzelnen Werte des Tages

Uhrzeit Temperatur Luftdruck Luftfeuchte Wind Hi-Wind Taupunkt THW Index Wind Chill Heat Index Solar- strahlung Regen

00:00

13.9 C

1007.5 hpa

81 %

0.0 km/h aus 108

0.0 km/h aus ---

10.7 C

13.8 C

13.9 C

13.8 C

0 W/m

0.00 mm

00:05

13.9 C

1007.5 hpa

82 %

0.0 km/h aus 111

1.6 km/h aus SE

10.9 C

13.8 C

13.9 C

13.8 C

0 W/m

0.00 mm

00:10

13.9 C

1007.5 hpa

82 %

0.0 km/h aus 108

3.2 km/h aus SE

10.9 C

13.8 C

13.9 C

13.8 C

0 W/m

0.00 mm

00:15

13.8 C

1007.5 hpa

83 %

0.0 km/h aus 109

1.6 km/h aus SE

11.0 C

13.7 C

13.8 C

13.7 C

0 W/m

0.00 mm

00:20

13.8 C

1007.5 hpa

84 %

0.0 km/h aus 105

3.2 km/h aus SE

11.2 C

13.8 C

13.8 C

13.8 C

0 W/m

0.00 mm

00:25

13.8 C

1007.5 hpa

84 %

0.0 km/h aus 106

3.2 km/h aus SE

11.1 C

13.7 C

13.8 C

13.7 C

0 W/m

0.00 mm

00:30

13.9 C

1007.5 hpa

84 %

0.0 km/h aus 107

1.6 km/h aus SE

11.2 C

13.8 C

13.9 C

13.8 C

0 W/m

0.00 mm

00:35

14.0 C

1007.5 hpa

84 %

0.0 km/h aus 112

3.2 km/h aus SE

11.3 C

13.9 C

14.0 C

13.9 C

0 W/m

0.00 mm

00:40

14.1 C

1007.5 hpa

83 %

0.0 km/h aus 110

4.8 km/h aus SE

11.3 C

14.0 C

14.1 C

14.0 C

0 W/m

0.00 mm

00:45

14.1 C

1007.5 hpa

83 %

0.0 km/h aus 106

3.2 km/h aus SE

11.3 C

14.0 C

14.1 C

14.0 C

0 W/m

0.00 mm

00:50

14.2 C

1007.5 hpa

83 %

0.0 km/h aus 109

3.2 km/h aus SE

11.3 C

14.1 C

14.2 C

14.1 C

0 W/m

0.00 mm

00:55

14.2 C

1007.5 hpa

83 %

1.6 km/h aus 114

3.2 km/h aus SE

11.3 C

14.1 C

14.2 C

14.1 C

0 W/m

0.00 mm

01:00

14.2 C

1007.4 hpa

83 %

1.6 km/h aus 112

4.8 km/h aus SE

11.3 C

14.1 C

14.2 C

14.1 C

0 W/m

0.00 mm

01:05

14.2 C

1007.4 hpa

84 %

1.6 km/h aus 106

3.2 km/h aus SE

11.5 C

14.1 C

14.2 C

14.1 C

0 W/m

0.00 mm

01:10

14.1 C

1007.4 hpa

84 %

1.6 km/h aus 110

4.8 km/h aus SE

11.4 C

14.1 C

14.1 C

14.1 C

0 W/m

0.00 mm

01:15

14.1 C

1007.3 hpa

84 %

1.6 km/h aus 112

4.8 km/h aus SE

11.4 C

14.1 C

14.1 C

14.1 C

0 W/m

0.00 mm

01:20

14.2 C

1007.3 hpa

84 %

3.2 km/h aus 107

4.8 km/h aus SE

11.5 C

14.1 C

14.2 C

14.1 C

0 W/m

0.00 mm

01:25

14.2 C

1007.3 hpa

84 %

3.2 km/h aus 113

6.4 km/h aus SE

11.5 C

14.1 C

14.2 C

14.1 C

0 W/m

0.00 mm

01:30

14.2 C

1007.1 hpa

84 %

3.2 km/h aus 110

4.8 km/h aus SE

11.6 C

14.2 C

14.2 C

14.2 C

0 W/m

0.00 mm

01:35

14.3 C

1007.1 hpa

83 %

1.6 km/h aus 109

4.8 km/h aus SE

11.5 C

14.3 C

14.3 C

14.3 C

0 W/m

0.00 mm

01:40

14.4 C

1007.1 hpa

83 %

1.6 km/h aus 108

4.8 km/h aus SE

11.5 C

14.3 C

14.4 C

14.3 C

0 W/m

0.00 mm

01:45

14.3 C

1007.0 hpa

83 %

3.2 km/h aus 109

8.0 km/h aus SE

11.5 C

14.3 C

14.3 C

14.3 C

0 W/m

0.00 mm

01:50

14.3 C

1007.0 hpa

84 %

3.2 km/h aus 109

4.8 km/h aus SE

11.6 C

14.2 C

14.3 C

14.2 C

0 W/m

0.00 mm

01:55

14.2 C

1007.0 hpa

84 %

3.2 km/h aus 108

6.4 km/h aus SE

11.6 C

14.2 C

14.2 C

14.2 C

0 W/m

0.00 mm

02:00

14.2 C

1007.0 hpa

84 %

3.2 km/h aus 110

6.4 km/h aus SE

11.6 C

14.2 C

14.2 C

14.2 C

0 W/m

0.00 mm

02:05

14.2 C

1007.0 hpa

84 %

3.2 km/h aus 110

8.0 km/h aus SE

11.5 C

14.1 C

14.2 C

14.1 C

0 W/m

0.00 mm

02:10

14.1 C

1007.0 hpa

84 %

3.2 km/h aus 109

6.4 km/h aus SE

11.4 C

14.1 C

14.1 C

14.1 C

0 W/m

0.00 mm

02:15

14.2 C

1007.0 hpa

84 %

3.2 km/h aus 107

8.0 km/h aus SE

11.5 C

14.1 C

14.2 C

14.1 C

0 W/m

0.00 mm

02:20

14.2 C

1007.0 hpa

84 %

1.6 km/h aus 108

4.8 km/h aus SE

11.6 C

14.2 C

14.2 C

14.2 C

0 W/m

0.00 mm

02:25

14.2 C

1007.0 hpa

84 %

1.6 km/h aus 113

4.8 km/h aus SE

11.6 C

14.2 C

14.2 C

14.2 C

0 W/m

0.00 mm

02:30

14.1 C

1007.1 hpa

84 %

1.6 km/h aus 110

4.8 km/h aus SE

11.4 C

14.1 C

14.1 C

14.1 C

0 W/m

0.00 mm

02:35

14.0 C

1007.1 hpa

84 %

1.6 km/h aus 114

4.8 km/h aus SE

11.3 C

13.9 C

14.0 C

13.9 C

0 W/m

0.00 mm

02:40

13.9 C

1007.1 hpa

85 %

0.0 km/h aus 116

3.2 km/h aus SE

11.5 C

13.9 C

13.9 C

13.9 C

0 W/m

0.00 mm

02:45

13.9 C

1007.1 hpa

85 %

0.0 km/h aus 114

1.6 km/h aus SE

11.4 C

13.8 C

13.9 C

13.8 C

0 W/m

0.00 mm

02:50

13.8 C

1007.1 hpa

85 %

0.0 km/h aus 107

3.2 km/h aus SE

11.3 C

13.7 C

13.8 C

13.7 C

0 W/m

0.00 mm

02:55

13.8 C

1007.1 hpa

85 %

0.0 km/h aus 113

3.2 km/h aus SE

11.3 C

13.7 C

13.8 C

13.7 C

0 W/m

0.00 mm

03:00

13.8 C

1007.0 hpa

85 %

1.6 km/h aus 110

3.2 km/h aus SE

11.3 C

13.7 C

13.8 C

13.7 C

0 W/m

0.00 mm

03:05

13.7 C

1007.0 hpa

86 %

1.6 km/h aus 110

4.8 km/h aus SE

11.4 C

13.7 C

13.7 C

13.7 C

0 W/m

0.00 mm

03:10

13.7 C

1007.0 hpa

86 %

1.6 km/h aus 111

3.2 km/h aus SE

11.4 C

13.6 C

13.7 C

13.6 C

0 W/m

0.00 mm

03:15

13.6 C

1007.1 hpa

86 %

0.0 km/h aus 113

3.2 km/h aus SE

11.3 C

13.6 C

13.6 C

13.6 C

0 W/m

0.00 mm

03:20

13.5 C

1007.1 hpa

87 %

1.6 km/h aus 110

4.8 km/h aus SE

11.4 C

13.5 C

13.5 C

13.5 C

0 W/m

0.00 mm

03:25

13.4 C

1007.1 hpa

87 %

1.6 km/h aus 113

4.8 km/h aus SE

11.3 C

13.4 C

13.4 C

13.4 C

0 W/m

0.00 mm

03:30

13.5 C

1007.0 hpa

87 %

1.6 km/h aus 113

4.8 km/h aus SE

11.4 C

13.5 C

13.5 C

13.5 C

0 W/m

0.00 mm

03:35

13.6 C

1007.0 hpa

87 %

1.6 km/h aus 108

4.8 km/h aus SE

11.5 C

13.6 C

13.6 C

13.6 C

0 W/m

0.00 mm

03:40

13.7 C

1007.0 hpa

86 %

1.6 km/h aus 113

4.8 km/h aus SE

11.4 C

13.7 C

13.7 C

13.7 C

0 W/m

0.00 mm

03:45

13.7 C

1007.0 hpa

86 %

3.2 km/h aus 112

8.0 km/h aus SE

11.4 C

13.7 C

13.7 C

13.7 C

0 W/m

0.00 mm

03:50

13.7 C

1007.0 hpa

86 %

3.2 km/h aus 107

6.4 km/h aus SE

11.4 C

13.7 C

13.7 C

13.7 C

0 W/m

0.00 mm

03:55

13.7 C

1007.0 hpa

86 %

4.8 km/h aus 109

6.4 km/h aus SE

11.4 C

13.7 C

13.7 C

13.7 C

0 W/m

0.00 mm

04:00

13.8 C

1007.0 hpa

86 %

4.8 km/h aus 111

8.0 km/h aus SE

11.5 C

13.7 C

13.8 C

13.7 C

0 W/m

0.00 mm

04:05

13.8 C

1007.0 hpa

86 %

6.4 km/h aus 110

9.7 km/h aus SE

11.5 C

13.8 C

13.8 C

13.8 C

0 W/m

0.00 mm

04:10

13.9 C

1007.0 hpa

86 %

4.8 km/h aus 113

11.3 km/h aus SE

11.6 C

13.8 C

13.9 C

13.8 C

0 W/m

0.00 mm

04:15

13.9 C

1006.9 hpa

85 %

3.2 km/h aus 99

6.4 km/h aus SE

11.5 C

13.9 C

13.9 C

13.9 C

0 W/m

0.00 mm

04:20

14.0 C

1006.9 hpa

85 %

3.2 km/h aus 112

8.0 km/h aus SE

11.5 C

13.9 C

14.0 C

13.9 C

0 W/m

0.00 mm

04:25

14.1 C

1006.9 hpa

85 %

1.6 km/h aus 105

6.4 km/h aus SE

11.6 C

14.0 C

14.1 C

14.0 C

0 W/m

0.00 mm

04:30

14.0 C

1007.0 hpa

85 %

1.6 km/h aus 112

4.8 km/h aus SE

11.5 C

13.9 C

14.0 C

13.9 C

0 W/m

0.00 mm

04:35

13.9 C

1007.0 hpa

85 %

1.6 km/h aus 111

4.8 km/h aus SE

11.5 C

13.9 C

13.9 C

13.9 C

0 W/m

0.00 mm

04:40

14.0 C

1007.0 hpa

85 %

1.6 km/h aus 111

6.4 km/h aus SE

11.5 C

13.9 C

14.0 C

13.9 C

0 W/m

0.00 mm

04:45

14.1 C

1007.0 hpa

85 %

4.8 km/h aus 109

8.0 km/h aus SE

11.6 C

14.0 C

14.1 C

14.0 C

0 W/m

0.00 mm

04:50

14.1 C

1007.0 hpa

85 %

4.8 km/h aus 112

9.7 km/h aus SE

11.6 C

14.0 C

14.1 C

14.0 C

0 W/m

0.00 mm

04:55

14.1 C

1007.0 hpa

84 %

1.6 km/h aus 111

6.4 km/h aus SE

11.4 C

14.1 C

14.1 C

14.1 C

0 W/m

0.00 mm

05:00

14.2 C

1007.0 hpa

84 %

3.2 km/h aus 110

6.4 km/h aus SE

11.5 C

14.1 C

14.2 C

14.1 C

0 W/m

0.00 mm

05:05

14.2 C

1007.0 hpa

84 %

3.2 km/h aus 109

8.0 km/h aus SE

11.5 C

14.1 C

14.2 C

14.1 C

0 W/m

0.00 mm

05:10

14.2 C

1007.0 hpa

84 %

3.2 km/h aus 111

8.0 km/h aus SE

11.5 C

14.1 C

14.2 C

14.1 C

0 W/m

0.00 mm

05:15

14.2 C

1007.0 hpa

84 %

3.2 km/h aus 113

8.0 km/h aus SE

11.5 C

14.1 C

14.2 C

14.1 C

0 W/m

0.00 mm

05:20

14.2 C

1007.0 hpa

84 %

3.2 km/h aus 110

6.4 km/h aus SE

11.6 C

14.2 C

14.2 C

14.2 C

0 W/m

0.00 mm

05:25

14.2 C

1007.0 hpa

84 %

3.2 km/h aus 114

6.4 km/h aus SE

11.6 C

14.2 C

14.2 C

14.2 C

0 W/m

0.00 mm

05:30

14.2 C

1007.0 hpa

84 %

4.8 km/h aus 111

9.7 km/h aus SE

11.6 C

14.2 C

14.2 C

14.2 C

0 W/m

0.00 mm

05:35

14.2 C

1007.0 hpa

84 %

4.8 km/h aus 106

9.7 km/h aus SE

11.6 C

14.2 C

14.2 C

14.2 C

0 W/m

0.00 mm

05:40

14.2 C

1007.0 hpa

84 %

6.4 km/h aus 111

9.7 km/h aus SE

11.6 C

14.2 C

14.2 C

14.2 C

0 W/m

0.00 mm

05:45

14.2 C

1007.1 hpa

84 %

4.8 km/h aus 111

8.0 km/h aus SE

11.6 C

14.2 C

14.2 C

14.2 C

0 W/m

0.00 mm

05:50

14.2 C

1007.1 hpa

84 %

4.8 km/h aus 108

9.7 km/h aus SE

11.6 C

14.2 C

14.2 C

14.2 C

0 W/m

0.00 mm

05:55

14.3 C

1007.1 hpa

84 %

4.8 km/h aus 108

8.0 km/h aus SE

11.6 C

14.2 C

14.3 C

14.2 C

0 W/m

0.00 mm

06:00

14.3 C

1007.1 hpa

84 %

4.8 km/h aus 111

8.0 km/h aus SE

11.6 C

14.2 C

14.3 C

14.2 C

0 W/m

0.00 mm

06:05

14.3 C

1007.1 hpa

84 %

4.8 km/h aus 111

8.0 km/h aus SE

11.7 C

14.3 C

14.3 C

14.3 C

0 W/m

0.00 mm

06:10

14.4 C

1007.1 hpa

83 %

4.8 km/h aus 108

9.7 km/h aus SE

11.5 C

14.3 C

14.4 C

14.3 C

0 W/m

0.00 mm

06:15

14.4 C

1007.3 hpa

83 %

4.8 km/h aus 110

8.0 km/h aus SE

11.6 C

14.4 C

14.4 C

14.4 C

0 W/m

0.00 mm

06:20

14.5 C

1007.3 hpa

83 %

3.2 km/h aus 111

9.7 km/h aus SE

11.6 C

14.4 C

14.5 C

14.4 C

0 W/m

0.00 mm

06:25

14.6 C

1007.3 hpa

83 %

3.2 km/h aus 113

8.0 km/h aus SE

11.7 C

14.5 C

14.6 C

14.5 C

0 W/m

0.00 mm

06:30

14.6 C

1007.4 hpa

83 %

3.2 km/h aus 107

6.4 km/h aus SE

11.7 C

14.5 C

14.6 C

14.5 C

0 W/m

0.00 mm

06:35

14.6 C

1007.4 hpa

83 %

3.2 km/h aus 109

8.0 km/h aus SE

11.7 C

14.5 C

14.6 C

14.5 C

0 W/m

0.00 mm

06:40

14.6 C

1007.4 hpa

83 %

1.6 km/h aus 111

8.0 km/h aus SE

11.8 C

14.6 C

14.6 C

14.6 C

0 W/m

0.00 mm

06:45

14.7 C

1007.5 hpa

83 %

1.6 km/h aus 111

4.8 km/h aus SE

11.8 C

14.6 C

14.7 C

14.6 C

0 W/m

0.00 mm

06:50

14.7 C

1007.5 hpa

83 %

0.0 km/h aus 109

3.2 km/h aus SE

11.8 C

14.6 C

14.7 C

14.6 C

0 W/m

0.00 mm

06:55

14.7 C

1007.5 hpa

83 %

1.6 km/h aus 112

6.4 km/h aus SE

11.9 C

14.7 C

14.7 C

14.7 C

0 W/m

0.00 mm

07:00

14.7 C

1007.6 hpa

83 %

1.6 km/h aus 104

4.8 km/h aus SE

11.8 C

14.6 C

14.7 C

14.6 C

0 W/m

0.00 mm

07:05

14.7 C

1007.6 hpa

83 %

0.0 km/h aus 107

3.2 km/h aus SSW

11.9 C

14.7 C

14.7 C

14.7 C

0 W/m

0.00 mm

07:10

14.8 C

1007.6 hpa

82 %

0.0 km/h aus 105

4.8 km/h aus SSW

11.7 C

14.7 C

14.8 C

14.7 C

0 W/m

0.00 mm

07:15

14.8 C

1007.6 hpa

82 %

1.6 km/h aus 106

4.8 km/h aus SSW

11.7 C

14.7 C

14.8 C

14.7 C

0 W/m

0.00 mm

07:20

14.8 C

1007.6 hpa

83 %

1.6 km/h aus 106

3.2 km/h aus SSW

12.0 C

14.8 C

14.8 C

14.8 C

0 W/m

0.00 mm

07:25

14.8 C

1007.6 hpa

83 %

0.0 km/h aus 112

4.8 km/h aus SSW

12.0 C

14.8 C

14.8 C

14.8 C

0 W/m

0.00 mm

07:30

14.8 C

1007.9 hpa

83 %

1.6 km/h aus 108

3.2 km/h aus SSW

12.0 C

14.8 C

14.8 C

14.8 C

0 W/m

0.00 mm

07:35

14.8 C

1007.9 hpa

83 %

1.6 km/h aus 110

4.8 km/h aus SSW

12.0 C

14.8 C

14.8 C

14.8 C

0 W/m

0.00 mm

07:40

14.8 C

1007.9 hpa

83 %

1.6 km/h aus 114

6.4 km/h aus SSW

12.0 C

14.8 C

14.8 C

14.8 C

0 W/m

0.00 mm

07:45

14.9 C

1008.0 hpa

83 %

3.2 km/h aus 117

6.4 km/h aus SSW

12.0 C

14.8 C

14.9 C

14.8 C

0 W/m

0.00 mm

07:50

14.9 C

1008.0 hpa

83 %

3.2 km/h aus 113

6.4 km/h aus SSW

12.0 C

14.8 C

14.9 C

14.8 C

0 W/m

0.00 mm

07:55

15.0 C

1008.0 hpa

82 %

0.0 km/h aus 114

4.8 km/h aus SSW

12.0 C

14.9 C

15.0 C

14.9 C

0 W/m

0.00 mm

08:00

15.0 C

1008.1 hpa

82 %

1.6 km/h aus 114

3.2 km/h aus SSW

12.0 C

14.9 C

15.0 C

14.9 C

0 W/m

0.00 mm

08:05

15.0 C

1008.1 hpa

82 %

1.6 km/h aus 110

4.8 km/h aus SSW

12.0 C

14.9 C

15.0 C

14.9 C

0 W/m

0.00 mm

08:10

15.0 C

1008.1 hpa

82 %

3.2 km/h aus 113

8.0 km/h aus SSW

12.0 C

14.9 C

15.0 C

14.9 C

0 W/m

0.00 mm

08:15

15.0 C

1008.2 hpa

83 %

3.2 km/h aus 109

6.4 km/h aus SSW

12.1 C

14.9 C

15.0 C

14.9 C

0 W/m

0.00 mm

08:20

14.9 C

1008.2 hpa

83 %

3.2 km/h aus 107

8.0 km/h aus SSW

12.1 C

14.9 C

14.9 C

14.9 C

0 W/m

0.00 mm

08:25

14.9 C

1008.2 hpa

83 %

3.2 km/h aus 105

8.0 km/h aus SSW

12.0 C

14.8 C

14.9 C

14.8 C

0 W/m

0.00 mm

08:30

14.9 C

1008.5 hpa

84 %

3.2 km/h aus 110

4.8 km/h aus WSW

12.2 C

14.8 C

14.9 C

14.8 C

0 W/m

0.00 mm

08:35

14.9 C

1008.5 hpa

84 %

3.2 km/h aus 108

6.4 km/h aus SW

12.3 C

14.9 C

14.9 C

14.9 C

0 W/m

0.00 mm

08:40

15.0 C

1008.5 hpa

84 %

4.8 km/h aus 102

9.7 km/h aus SW

12.3 C

15.0 C

15.0 C

15.0 C

0 W/m

0.00 mm

08:45

15.0 C

1008.5 hpa

84 %

3.2 km/h aus 98

8.0 km/h aus SW

12.3 C

15.0 C

15.0 C

15.0 C

0 W/m

0.00 mm

08:50

15.0 C

1008.5 hpa

85 %

3.2 km/h aus 108

8.0 km/h aus SW

12.5 C

15.0 C

15.0 C

15.0 C

0 W/m

0.00 mm

08:55

15.0 C

1008.5 hpa

85 %

3.2 km/h aus 114

8.0 km/h aus SW

12.5 C

15.0 C

15.0 C

15.0 C

0 W/m

0.00 mm

09:00

15.0 C

1008.6 hpa

85 %

1.6 km/h aus 109

4.8 km/h aus SW

12.5 C

15.0 C

15.0 C

15.0 C

0 W/m

0.00 mm

09:05

15.0 C

1008.6 hpa

85 %

3.2 km/h aus 110

11.3 km/h aus SSW

12.5 C

15.0 C

15.0 C

15.0 C

0 W/m

0.00 mm

09:10

15.0 C

1008.6 hpa

85 %

4.8 km/h aus 110

11.3 km/h aus SE

12.5 C

15.0 C

15.0 C

15.0 C

0 W/m

0.00 mm

09:15

15.1 C

1008.6 hpa

85 %

6.4 km/h aus 116

11.3 km/h aus ESE

12.6 C

15.1 C

15.1 C

15.1 C

0 W/m

0.00 mm

09:20

15.2 C

1008.6 hpa

84 %

6.4 km/h aus 109

11.3 km/h aus ESE

12.5 C

15.2 C

15.2 C

15.2 C

0 W/m

0.00 mm

09:25

15.4 C

1008.6 hpa

84 %

6.4 km/h aus 113

14.5 km/h aus ESE

12.7 C

15.4 C

15.4 C

15.4 C

0 W/m

0.00 mm

09:30

15.7 C

1008.6 hpa

83 %

6.4 km/h aus 110

11.3 km/h aus ESE

12.8 C

15.7 C

15.7 C

15.7 C

0 W/m

0.00 mm

09:35

16.1 C

1008.6 hpa

83 %

8.0 km/h aus 110

16.1 km/h aus ESE

13.2 C

16.2 C

16.1 C

16.2 C

0 W/m

0.00 mm

09:40

16.4 C

1008.6 hpa

82 %

8.0 km/h aus 110

17.7 km/h aus SE

13.3 C

16.5 C

16.4 C

16.5 C

0 W/m

0.00 mm

09:45

16.7 C

1008.6 hpa

80 %

9.7 km/h aus 111

17.7 km/h aus SE

13.3 C

16.8 C

16.7 C

16.8 C

0 W/m

0.00 mm

09:50

16.9 C

1008.6 hpa

79 %

9.7 km/h aus 109

17.7 km/h aus SSE

13.3 C

17.1 C

16.9 C

17.1 C

0 W/m

0.00 mm

09:55

16.9 C

1008.6 hpa

78 %

8.0 km/h aus 109

17.7 km/h aus SSE

13.1 C

17.0 C

16.9 C

17.0 C

0 W/m

0.00 mm

10:00

17.2 C

1008.8 hpa

77 %

9.7 km/h aus 109

17.7 km/h aus SSE

13.2 C

17.3 C

17.2 C

17.3 C

0 W/m

0.00 mm

10:05

17.5 C

1008.8 hpa

77 %

9.7 km/h aus 114

17.7 km/h aus SSE

13.4 C

17.6 C

17.5 C

17.6 C

0 W/m

0.00 mm

10:10

17.4 C

1008.8 hpa

77 %

6.4 km/h aus 101

11.3 km/h aus SSE

13.3 C

17.4 C

17.4 C

17.4 C

0 W/m

0.00 mm

10:15

17.4 C

1009.0 hpa

77 %

9.7 km/h aus 114

14.5 km/h aus SSE

13.3 C

17.4 C

17.4 C

17.4 C

0 W/m

0.00 mm

10:20

17.2 C

1009.0 hpa

77 %

9.7 km/h aus 107

16.1 km/h aus SSE

13.2 C

17.3 C

17.2 C

17.3 C

0 W/m

0.00 mm

10:25

17.0 C

1009.0 hpa

77 %

12.9 km/h aus 110

19.3 km/h aus S

12.9 C

16.4 C

16.4 C

17.0 C

0 W/m

0.00 mm

10:30

16.8 C

1009.1 hpa

77 %

12.9 km/h aus 112

19.3 km/h aus SSE

12.7 C

16.2 C

16.2 C

16.8 C

0 W/m

0.00 mm

10:35

16.8 C

1009.1 hpa

78 %

8.0 km/h aus 111

12.9 km/h aus SSE

12.9 C

16.8 C

16.8 C

16.8 C

0 W/m

0.00 mm

10:40

16.8 C

1009.1 hpa

78 %

8.0 km/h aus 114

14.5 km/h aus SSE

12.9 C

16.8 C

16.8 C

16.8 C

0 W/m

0.00 mm

10:45

16.8 C

1009.3 hpa

79 %

8.0 km/h aus 110

12.9 km/h aus SSE

13.1 C

16.8 C

16.8 C

16.8 C

0 W/m

0.00 mm

10:50

16.8 C

1009.3 hpa

79 %

4.8 km/h aus 110

9.7 km/h aus SSE

13.1 C

16.8 C

16.8 C

16.8 C

0 W/m

0.00 mm

10:55

17.0 C

1009.3 hpa

80 %

4.8 km/h aus 112

9.7 km/h aus SSE

13.5 C

17.2 C

17.0 C

17.2 C

0 W/m

0.00 mm

11:00

17.1 C

1009.4 hpa

79 %

4.8 km/h aus 106

9.7 km/h aus SSE

13.4 C

17.2 C

17.1 C

17.2 C

0 W/m

0.00 mm

11:05

17.1 C

1009.4 hpa

79 %

4.8 km/h aus 113

9.7 km/h aus SSE

13.4 C

17.2 C

17.1 C

17.2 C

0 W/m

0.00 mm

11:10

17.3 C

1009.4 hpa

79 %

3.2 km/h aus 110

6.4 km/h aus SSE

13.6 C

17.4 C

17.3 C

17.4 C

0 W/m

0.00 mm

11:15

17.6 C

1009.5 hpa

77 %

4.8 km/h aus 113

8.0 km/h aus SSE

13.5 C

17.7 C

17.6 C

17.7 C

0 W/m

0.00 mm

11:20

17.7 C

1009.5 hpa

76 %

3.2 km/h aus 115

9.7 km/h aus SSE

13.4 C

17.8 C

17.7 C

17.8 C

0 W/m

0.00 mm

11:25

18.1 C

1009.5 hpa

76 %

1.6 km/h aus 113

6.4 km/h aus SSE

13.8 C

18.2 C

18.1 C

18.2 C

0 W/m

0.00 mm

11:30

18.2 C

1009.5 hpa

74 %

1.6 km/h aus 114

6.4 km/h aus SSE

13.5 C

18.3 C

18.2 C

18.3 C

0 W/m

0.00 mm

11:35

18.1 C

1009.5 hpa

76 %

3.2 km/h aus 113

8.0 km/h aus SSE

13.8 C

18.3 C

18.1 C

18.3 C

0 W/m

0.00 mm

11:40

18.1 C

1009.5 hpa

74 %

4.8 km/h aus 112

9.7 km/h aus SSE

13.4 C

18.2 C

18.1 C

18.2 C

0 W/m

0.00 mm

11:45

18.1 C

1009.6 hpa

75 %

3.2 km/h aus 113

11.3 km/h aus SSE

13.6 C

18.2 C

18.1 C

18.2 C

0 W/m

0.00 mm

11:50

18.2 C

1009.6 hpa

76 %

4.8 km/h aus 115

9.7 km/h aus SSE

13.9 C

18.3 C

18.2 C

18.3 C

0 W/m

0.00 mm

11:55

18.6 C

1009.6 hpa

75 %

3.2 km/h aus 112

6.4 km/h aus SSE

14.0 C

18.8 C

18.6 C

18.8 C

0 W/m

0.00 mm

12:00

18.6 C

1009.6 hpa

73 %

1.6 km/h aus 115

4.8 km/h aus SSE

13.6 C

18.7 C

18.6 C

18.7 C

0 W/m

0.00 mm

12:05

18.9 C

1009.6 hpa

74 %

3.2 km/h aus 112

6.4 km/h aus SSE

14.2 C

19.1 C

18.9 C

19.1 C

0 W/m

0.00 mm

12:10

19.1 C

1009.6 hpa

74 %

3.2 km/h aus 117

9.7 km/h aus SSE

14.3 C

19.3 C

19.1 C

19.3 C

0 W/m

0.00 mm

12:15

19.3 C

1009.6 hpa

73 %

1.6 km/h aus 116

6.4 km/h aus SSE

14.3 C

19.6 C

19.3 C

19.6 C

0 W/m

0.00 mm

12:20

19.4 C

1009.6 hpa

73 %

6.4 km/h aus 117

14.5 km/h aus SE

14.5 C

19.8 C

19.4 C

19.8 C

0 W/m

0.00 mm

12:25

19.4 C

1009.6 hpa

71 %

3.2 km/h aus 115

9.7 km/h aus SE

14.0 C

19.6 C

19.4 C

19.6 C

0 W/m

0.00 mm

12:30

19.2 C

1009.6 hpa

69 %

4.8 km/h aus 114

11.3 km/h aus SE

13.4 C

19.3 C

19.2 C

19.3 C

0 W/m

0.00 mm

12:35

19.3 C

1009.6 hpa

69 %

4.8 km/h aus 116

11.3 km/h aus SE

13.4 C

19.4 C

19.3 C

19.4 C

0 W/m

0.00 mm

12:40

19.2 C

1009.6 hpa

67 %

1.6 km/h aus 116

4.8 km/h aus SE

12.9 C

19.2 C

19.2 C

19.2 C

0 W/m

0.00 mm

12:45

19.3 C

1009.6 hpa

72 %

1.6 km/h aus 115

8.0 km/h aus SE

14.1 C

19.6 C

19.3 C

19.6 C

0 W/m

0.00 mm

12:50

19.3 C

1009.6 hpa

71 %

1.6 km/h aus 116

8.0 km/h aus SE

13.9 C

19.5 C

19.3 C

19.5 C

0 W/m

0.00 mm

12:55

19.3 C

1009.6 hpa

72 %

0.0 km/h aus 114

3.2 km/h aus SE

14.1 C

19.6 C

19.3 C

19.6 C

0 W/m

0.00 mm

13:00

19.4 C

1009.6 hpa

69 %

3.2 km/h aus 116

9.7 km/h aus SE

13.6 C

19.6 C

19.4 C

19.6 C

0 W/m

0.00 mm

13:05

19.4 C

1009.6 hpa

69 %

3.2 km/h aus 113

8.0 km/h aus SE

13.6 C

19.6 C

19.4 C

19.6 C

0 W/m

0.00 mm

13:10

19.8 C

1009.6 hpa

68 %

3.2 km/h aus 116

8.0 km/h aus SE

13.7 C

20.0 C

19.8 C

20.0 C

0 W/m

0.00 mm

13:15

20.0 C

1009.7 hpa

66 %

6.4 km/h aus 114

17.7 km/h aus SSE

13.5 C

20.2 C

20.0 C

20.2 C

0 W/m

0.00 mm

13:20

19.8 C

1009.7 hpa

68 %

6.4 km/h aus 109

11.3 km/h aus SE

13.8 C

20.1 C

19.8 C

20.1 C

0 W/m

0.00 mm

13:25

20.1 C

1009.7 hpa

69 %

4.8 km/h aus 115

11.3 km/h aus SE

14.2 C

20.4 C

20.1 C

20.4 C

0 W/m

0.00 mm

13:30

20.8 C

1009.9 hpa

65 %

6.4 km/h aus 114

12.9 km/h aus SE

14.0 C

20.7 C

20.8 C

20.7 C

0 W/m

0.00 mm

13:35

20.4 C

1009.9 hpa

65 %

1.6 km/h aus 115

6.4 km/h aus SE

13.6 C

20.4 C

20.4 C

20.4 C

0 W/m

0.00 mm

13:40

20.7 C

1009.9 hpa

65 %

0.0 km/h aus 117

3.2 km/h aus SE

13.9 C

20.6 C

20.7 C

20.6 C

0 W/m

0.00 mm

13:45

20.3 C

1009.9 hpa

65 %

3.2 km/h aus 116

11.3 km/h aus SE

13.5 C

20.3 C

20.3 C

20.3 C

0 W/m

0.00 mm

13:50

20.0 C

1009.9 hpa

68 %

3.2 km/h aus 113

11.3 km/h aus ESE

13.9 C

20.2 C

20.0 C

20.2 C

0 W/m

0.00 mm

13:55

19.9 C

1009.9 hpa

67 %

1.6 km/h aus 110

4.8 km/h aus ESE

13.6 C

20.1 C

19.9 C

20.1 C

0 W/m

0.00 mm

14:00

20.2 C

1009.9 hpa

66 %

4.8 km/h aus 111

11.3 km/h aus SE

13.6 C

20.3 C

20.2 C

20.3 C

0 W/m

0.00 mm

14:05

20.6 C

1009.9 hpa

67 %

8.0 km/h aus 114

17.7 km/h aus SE

14.2 C

20.6 C

20.6 C

20.6 C

0 W/m

0.00 mm

14:10

20.9 C

1009.9 hpa

65 %

6.4 km/h aus 111

11.3 km/h aus SSE

14.1 C

20.8 C

20.9 C

20.8 C

0 W/m

0.00 mm

14:15

20.8 C

1010.1 hpa

65 %

8.0 km/h aus 114

14.5 km/h aus ESE

14.0 C

20.7 C

20.8 C

20.7 C

0 W/m

0.00 mm

14:20

20.6 C

1010.1 hpa

67 %

6.4 km/h aus 113

14.5 km/h aus ESE

14.3 C

20.7 C

20.6 C

20.7 C

0 W/m

0.00 mm

14:25

20.3 C

1010.1 hpa

66 %

3.2 km/h aus 112

11.3 km/h aus ESE

13.7 C

20.3 C

20.3 C

20.3 C

0 W/m

0.00 mm

14:30

20.0 C

1010.1 hpa

67 %

1.6 km/h aus 112

8.0 km/h aus ESE

13.7 C

20.2 C

20.0 C

20.2 C

0 W/m

0.00 mm

14:35

19.9 C

1010.1 hpa

68 %

0.0 km/h aus 116

3.2 km/h aus ESE

13.9 C

20.2 C

19.9 C

20.2 C

0 W/m

0.00 mm

14:40

20.7 C

1010.1 hpa

70 %

3.2 km/h aus 112

6.4 km/h aus ESE

15.1 C

20.9 C

20.7 C

20.9 C

0 W/m

0.00 mm

14:45

21.2 C

1010.1 hpa

65 %

8.0 km/h aus 114

16.1 km/h aus SSE

14.4 C

21.1 C

21.2 C

21.1 C

0 W/m

0.00 mm

14:50

20.9 C

1010.1 hpa

66 %

4.8 km/h aus 116

11.3 km/h aus SSE

14.4 C

20.8 C

20.9 C

20.8 C

0 W/m

0.00 mm

14:55

20.8 C

1010.1 hpa

64 %

3.2 km/h aus 116

11.3 km/h aus SSE

13.7 C

20.6 C

20.8 C

20.6 C

0 W/m

0.00 mm

15:00

20.8 C

1010.1 hpa

64 %

1.6 km/h aus 116

8.0 km/h aus SSW

13.8 C

20.7 C

20.8 C

20.7 C

0 W/m

0.00 mm

15:05

20.9 C

1010.1 hpa

65 %

8.0 km/h aus 115

11.3 km/h aus SW

14.1 C

20.8 C

20.9 C

20.8 C

0 W/m

0.00 mm

15:10

20.8 C

1010.1 hpa

64 %

4.8 km/h aus 114

11.3 km/h aus SSW

13.7 C

20.6 C

20.8 C

20.6 C

0 W/m

0.00 mm

15:15

20.9 C

1010.2 hpa

66 %

4.8 km/h aus 117

16.1 km/h aus S

14.3 C

20.8 C

20.9 C

20.8 C

0 W/m

0.00 mm

15:20

21.2 C

1010.2 hpa

63 %

9.7 km/h aus 115

17.7 km/h aus S

13.9 C

20.9 C

21.2 C

20.9 C

0 W/m

0.00 mm

15:25

21.9 C

1010.2 hpa

61 %

11.3 km/h aus 112

20.9 km/h aus S

14.1 C

21.8 C

21.9 C

21.8 C

0 W/m

0.00 mm

15:30

22.5 C

1010.2 hpa

60 %

11.3 km/h aus 115

20.9 km/h aus S

14.3 C

22.6 C

22.5 C

22.6 C

0 W/m

0.00 mm

15:35

21.8 C

1010.2 hpa

60 %

8.0 km/h aus 113

16.1 km/h aus SSE

13.7 C

21.6 C

21.8 C

21.6 C

0 W/m

0.00 mm

15:40

21.4 C

1010.2 hpa

62 %

11.3 km/h aus 117

19.3 km/h aus S

13.9 C

21.2 C

21.4 C

21.2 C

0 W/m

0.00 mm

15:45

21.1 C

1010.2 hpa

60 %

8.0 km/h aus 114

14.5 km/h aus SW

13.0 C

20.6 C

21.1 C

20.6 C

0 W/m

0.00 mm

15:50

20.8 C

1010.2 hpa

62 %

6.4 km/h aus 112

12.9 km/h aus SW

13.2 C

20.5 C

20.8 C

20.5 C

0 W/m

0.00 mm

15:55

20.6 C

1010.2 hpa

63 %

6.4 km/h aus 115

14.5 km/h aus SW

13.3 C

20.4 C

20.6 C

20.4 C

0 W/m

0.00 mm

16:00

20.6 C

1010.3 hpa

64 %

4.8 km/h aus 115

8.0 km/h aus S

13.6 C

20.5 C

20.6 C

20.5 C

0 W/m

0.00 mm

16:05

20.4 C

1010.3 hpa

68 %

8.0 km/h aus 114

14.5 km/h aus S

14.3 C

20.6 C

20.4 C

20.6 C

0 W/m

0.00 mm

16:10

20.1 C

1010.3 hpa

69 %

9.7 km/h aus 114

17.7 km/h aus S

14.2 C

20.4 C

20.1 C

20.4 C

0 W/m

0.00 mm

16:15

20.4 C

1010.5 hpa

68 %

6.4 km/h aus 113

9.7 km/h aus S

14.3 C

20.6 C

20.4 C

20.6 C

0 W/m

0.00 mm

16:20

20.7 C

1010.5 hpa

67 %

8.0 km/h aus 116

16.1 km/h aus SE

14.4 C

20.7 C

20.7 C

20.7 C

0 W/m

0.00 mm

16:25

20.9 C

1010.5 hpa

64 %

4.8 km/h aus 111

14.5 km/h aus ESE

13.9 C

20.8 C

20.9 C

20.8 C

0 W/m

0.00 mm

16:30

20.9 C

1010.6 hpa

63 %

6.4 km/h aus 113

12.9 km/h aus ESE

13.6 C

20.7 C

20.9 C

20.7 C

0 W/m

0.00 mm

16:35

21.1 C

1010.6 hpa

64 %

6.4 km/h aus 113

14.5 km/h aus SSE

14.0 C

20.8 C

21.1 C

20.8 C

0 W/m

0.00 mm

16:40

21.0 C

1010.6 hpa

64 %

9.7 km/h aus 112

19.3 km/h aus S

13.9 C

20.8 C

21.0 C

20.8 C

0 W/m

0.00 mm

16:45

21.0 C

1010.7 hpa

64 %

9.7 km/h aus 111

14.5 km/h aus SSE

13.9 C

20.8 C

21.0 C

20.8 C

0 W/m

0.00 mm

16:50

21.1 C

1010.7 hpa

63 %

8.0 km/h aus 111

16.1 km/h aus SSE

13.7 C

20.8 C

21.1 C

20.8 C

0 W/m

0.00 mm

16:55

20.9 C

1010.7 hpa

63 %

9.7 km/h aus 115

19.3 km/h aus S

13.6 C

20.7 C

20.9 C

20.7 C

0 W/m

0.00 mm

17:00

21.0 C

1010.8 hpa

64 %

11.3 km/h aus 114

19.3 km/h aus S

13.9 C

20.8 C

21.0 C

20.8 C

0 W/m

0.00 mm

17:05

21.1 C

1010.8 hpa

65 %

11.3 km/h aus 114

19.3 km/h aus S

14.2 C

20.9 C

21.1 C

20.9 C

0 W/m

0.00 mm

17:10

21.2 C

1010.8 hpa

64 %

8.0 km/h aus 115

16.1 km/h aus S

14.1 C

21.0 C

21.2 C

21.0 C

0 W/m

0.00 mm

17:15

21.1 C

1010.8 hpa

63 %

6.4 km/h aus 115

14.5 km/h aus SSE

13.8 C

20.8 C

21.1 C

20.8 C

0 W/m

0.00 mm

17:20

20.8 C

1010.8 hpa

60 %

1.6 km/h aus 114

8.0 km/h aus SSE

12.8 C

20.4 C

20.8 C

20.4 C

0 W/m

0.00 mm

17:25

20.9 C

1010.8 hpa

64 %

4.8 km/h aus 116

11.3 km/h aus SSE

13.9 C

20.8 C

20.9 C

20.8 C

0 W/m

0.00 mm

17:30

21.1 C

1010.8 hpa

63 %

6.4 km/h aus 113

9.7 km/h aus SSE

13.7 C

20.8 C

21.1 C

20.8 C

0 W/m

0.00 mm

17:35

21.1 C

1010.8 hpa

61 %

6.4 km/h aus 112

11.3 km/h aus SSE

13.3 C

20.7 C

21.1 C

20.7 C

0 W/m

0.00 mm

17:40

20.9 C

1010.8 hpa

63 %

4.8 km/h aus 115

11.3 km/h aus S

13.6 C

20.7 C

20.9 C

20.7 C

0 W/m

0.00 mm

17:45

21.2 C

1010.8 hpa

64 %

6.4 km/h aus 114

12.9 km/h aus S

14.1 C

20.9 C

21.2 C

20.9 C

0 W/m

0.00 mm

17:50

21.1 C

1010.8 hpa

63 %

3.2 km/h aus 115

9.7 km/h aus SSE

13.7 C

20.8 C

21.1 C

20.8 C

0 W/m

0.00 mm

17:55

21.1 C

1010.8 hpa

64 %

6.4 km/h aus 114

11.3 km/h aus SSE

14.0 C

20.8 C

21.1 C

20.8 C

0 W/m

0.00 mm

18:00

21.2 C

1010.8 hpa

65 %

3.2 km/h aus 117

9.7 km/h aus SSE

14.4 C

21.1 C

21.2 C

21.1 C

0 W/m

0.00 mm

18:05

21.8 C

1010.8 hpa

64 %

6.4 km/h aus 116

9.7 km/h aus SSE

14.7 C

21.8 C

21.8 C

21.8 C

0 W/m

0.00 mm

18:10

21.4 C

1010.8 hpa

61 %

8.0 km/h aus 114

19.3 km/h aus SSE

13.6 C

21.2 C

21.4 C

21.2 C

0 W/m

0.00 mm

18:15

21.1 C

1010.8 hpa

62 %

3.2 km/h aus 113

9.7 km/h aus SE

13.5 C

20.7 C

21.1 C

20.7 C

0 W/m

0.00 mm

18:20

20.8 C

1010.8 hpa

64 %

4.8 km/h aus 115

11.3 km/h aus SE

13.7 C

20.6 C

20.8 C

20.6 C

0 W/m

0.00 mm

18:25

20.7 C

1010.8 hpa

63 %

4.8 km/h aus 112

11.3 km/h aus SE

13.4 C

20.5 C

20.7 C

20.5 C

0 W/m

0.00 mm

18:30

20.7 C

1010.8 hpa

64 %

4.8 km/h aus 114

9.7 km/h aus SE

13.6 C

20.6 C

20.7 C

20.6 C

0 W/m

0.00 mm

18:35

20.6 C

1010.8 hpa

64 %

3.2 km/h aus 113

9.7 km/h aus SE

13.5 C

20.4 C

20.6 C

20.4 C

0 W/m

0.00 mm

18:40

20.6 C

1010.8 hpa

66 %

6.4 km/h aus 113

14.5 km/h aus SE

14.0 C

20.6 C

20.6 C

20.6 C

0 W/m

0.00 mm

18:45

20.4 C

1011.0 hpa

66 %

4.8 km/h aus 108

9.7 km/h aus SE

13.9 C

20.5 C

20.4 C

20.5 C

0 W/m

0.00 mm

18:50

20.3 C

1011.0 hpa

67 %

3.2 km/h aus 117

12.9 km/h aus ESE

14.0 C

20.4 C

20.3 C

20.4 C

0 W/m

0.00 mm

18:55

20.1 C

1011.0 hpa

69 %

6.4 km/h aus 115

11.3 km/h aus ESE

14.2 C

20.4 C

20.1 C

20.4 C

0 W/m

0.00 mm

19:00

19.9 C

1011.1 hpa

68 %

4.8 km/h aus 113

9.7 km/h aus ESE

13.8 C

20.1 C

19.9 C

20.1 C

0 W/m

0.00 mm

19:05

19.7 C

1011.1 hpa

70 %

4.8 km/h aus 114

9.7 km/h aus ESE

14.1 C

20.0 C

19.7 C

20.0 C

0 W/m

0.00 mm

19:10

19.6 C

1011.1 hpa

70 %

4.8 km/h aus 114

8.0 km/h aus ESE

13.9 C

19.8 C

19.6 C

19.8 C

0 W/m

0.00 mm

19:15

19.6 C

1011.2 hpa

71 %

3.2 km/h aus 112

8.0 km/h aus ESE

14.2 C

19.8 C

19.6 C

19.8 C

0 W/m

0.00 mm

19:20

19.4 C

1011.2 hpa

71 %

3.2 km/h aus 114

6.4 km/h aus ESE

14.0 C

19.7 C

19.4 C

19.7 C

0 W/m

0.00 mm

19:25

19.4 C

1011.2 hpa

72 %

3.2 km/h aus 110

4.8 km/h aus ESE

14.2 C

19.7 C

19.4 C

19.7 C

0 W/m

0.00 mm

19:30

19.3 C

1011.2 hpa

73 %

3.2 km/h aus 111

6.4 km/h aus ESE

14.4 C

19.6 C

19.3 C

19.6 C

0 W/m

0.00 mm

19:35

19.3 C

1011.2 hpa

74 %

3.2 km/h aus 110

6.4 km/h aus ESE

14.6 C

19.7 C

19.3 C

19.7 C

0 W/m

0.00 mm

19:40

19.3 C

1011.2 hpa

74 %

3.2 km/h aus 114

8.0 km/h aus ESE

14.6 C

19.7 C

19.3 C

19.7 C

0 W/m

0.00 mm

19:45

19.3 C

1011.4 hpa

73 %

3.2 km/h aus 116

4.8 km/h aus ESE

14.4 C

19.6 C

19.3 C

19.6 C

0 W/m

0.00 mm

19:50

19.3 C

1011.4 hpa

74 %

1.6 km/h aus 113

4.8 km/h aus ESE

14.6 C

19.7 C

19.3 C

19.7 C

0 W/m

0.00 mm

19:55

19.2 C

1011.4 hpa

78 %

3.2 km/h aus 116

6.4 km/h aus ESE

15.2 C

19.6 C

19.2 C

19.6 C

0 W/m

0.00 mm

20:00

18.8 C

1011.7 hpa

81 %

4.8 km/h aus 114

8.0 km/h aus ESE

15.5 C

19.3 C

18.8 C

19.3 C

0 W/m

0.25 mm

20:05

18.5 C

1011.7 hpa

83 %

4.8 km/h aus 112

6.4 km/h aus ESE

15.6 C

18.9 C

18.5 C

18.9 C

0 W/m

0.00 mm

20:10

18.2 C

1011.7 hpa

85 %

4.8 km/h aus 108

8.0 km/h aus ESE

15.7 C

18.7 C

18.2 C

18.7 C

0 W/m

0.00 mm

20:15

18.0 C

1011.8 hpa

86 %

4.8 km/h aus 108

8.0 km/h aus ESE

15.6 C

18.4 C

18.0 C

18.4 C

0 W/m

0.00 mm

20:20

17.9 C

1011.8 hpa

86 %

1.6 km/h aus 114

4.8 km/h aus ESE

15.6 C

18.3 C

17.9 C

18.3 C

0 W/m

0.00 mm

20:25

17.9 C

1011.8 hpa

86 %

3.2 km/h aus 109

8.0 km/h aus SSW

15.6 C

18.3 C

17.9 C

18.3 C

0 W/m

0.00 mm

20:30

17.9 C

1012.0 hpa

86 %

1.6 km/h aus 113

3.2 km/h aus SSW

15.6 C

18.3 C

17.9 C

18.3 C

0 W/m

0.00 mm

20:35

17.9 C

1012.0 hpa

86 %

1.6 km/h aus 110

4.8 km/h aus SSW

15.5 C

18.3 C

17.9 C

18.3 C

0 W/m

0.00 mm

20:40

17.8 C

1012.0 hpa

86 %

1.6 km/h aus 106

4.8 km/h aus SSW

15.4 C

18.1 C

17.8 C

18.1 C

0 W/m

0.00 mm

20:45

17.6 C

1012.0 hpa

86 %

1.6 km/h aus 109

4.8 km/h aus SSW

15.2 C

17.9 C

17.6 C

17.9 C

0 W/m

0.00 mm

20:50

17.6 C

1012.0 hpa

86 %

1.6 km/h aus 111

3.2 km/h aus SSW

15.2 C

17.9 C

17.6 C

17.9 C

0 W/m

0.00 mm

20:55

17.4 C

1012.0 hpa

86 %

0.0 km/h aus 114

4.8 km/h aus SSW

15.1 C

17.8 C

17.4 C

17.8 C

0 W/m

0.00 mm

21:00

17.4 C

1012.2 hpa

85 %

1.6 km/h aus 102

6.4 km/h aus SSW

14.9 C

17.7 C

17.4 C

17.7 C

0 W/m

0.00 mm

21:05

17.4 C

1012.2 hpa

86 %

1.6 km/h aus 102

4.8 km/h aus SSW

15.1 C

17.8 C

17.4 C

17.8 C

0 W/m

0.00 mm

21:10

17.3 C

1012.2 hpa

86 %

0.0 km/h aus 109

1.6 km/h aus SSW

15.0 C

17.7 C

17.3 C

17.7 C

0 W/m

0.00 mm

21:15

17.2 C

1012.2 hpa

86 %

0.0 km/h aus 115

0.0 km/h aus ---

14.9 C

17.5 C

17.2 C

17.5 C

0 W/m

0.00 mm

21:20

17.2 C

1012.2 hpa

87 %

0.0 km/h aus 110

0.0 km/h aus ---

15.0 C

17.5 C

17.2 C

17.5 C

0 W/m

0.00 mm

21:25

17.1 C

1012.2 hpa

87 %

0.0 km/h aus 110

0.0 km/h aus ---

14.9 C

17.3 C

17.1 C

17.3 C

0 W/m

0.00 mm

21:30

16.9 C

1012.4 hpa

88 %

0.0 km/h aus 113

1.6 km/h aus SSW

14.9 C

17.2 C

16.9 C

17.2 C

0 W/m

0.00 mm

21:35

16.8 C

1012.4 hpa

88 %

1.6 km/h aus 104

4.8 km/h aus SSW

14.8 C

17.1 C

16.8 C

17.1 C

0 W/m

0.00 mm

21:40

16.8 C

1012.4 hpa

88 %

0.0 km/h aus 115

3.2 km/h aus SSW

14.8 C

17.1 C

16.8 C

17.1 C

0 W/m

0.00 mm

21:45

16.8 C

1012.6 hpa

88 %

0.0 km/h aus 110

3.2 km/h aus SSW

14.8 C

17.1 C

16.8 C

17.1 C

0 W/m

0.00 mm

21:50

16.7 C

1012.6 hpa

88 %

0.0 km/h aus 109

0.0 km/h aus ---

14.7 C

16.9 C

16.7 C

16.9 C

0 W/m

0.00 mm

21:55

16.7 C

1012.6 hpa

88 %

0.0 km/h aus 109

1.6 km/h aus SSW

14.7 C

16.9 C

16.7 C

16.9 C

0 W/m

0.00 mm

22:00

16.6 C

1012.7 hpa

89 %

0.0 km/h aus 108

0.0 km/h aus ---

14.7 C

16.8 C

16.6 C

16.8 C

0 W/m

0.00 mm

22:05

16.5 C

1012.7 hpa

89 %

0.0 km/h aus 113

0.0 km/h aus ---

14.7 C

16.7 C

16.5 C

16.7 C

0 W/m

0.00 mm

22:10

16.4 C

1012.7 hpa

89 %

0.0 km/h aus 109

0.0 km/h aus ---

14.6 C

16.6 C

16.4 C

16.6 C

0 W/m

0.00 mm

22:15

16.4 C

1012.7 hpa

90 %

0.0 km/h aus 113

0.0 km/h aus ---

14.7 C

16.7 C

16.4 C

16.7 C

0 W/m

0.00 mm

22:20

16.3 C

1012.7 hpa

90 %

0.0 km/h aus 109

0.0 km/h aus ---

14.6 C

16.5 C

16.3 C

16.5 C

0 W/m

0.00 mm

22:25

16.2 C

1012.7 hpa

90 %

0.0 km/h aus 111

0.0 km/h aus ---

14.6 C

16.4 C

16.2 C

16.4 C

0 W/m

0.00 mm

22:30

16.2 C

1012.8 hpa

90 %

0.0 km/h aus 109

0.0 km/h aus ---

14.5 C

16.4 C

16.2 C

16.4 C

0 W/m

0.00 mm

22:35

16.2 C

1012.8 hpa

91 %

0.0 km/h aus 112

0.0 km/h aus ---

14.7 C

16.4 C

16.2 C

16.4 C

0 W/m

0.00 mm

22:40

16.1 C

1012.8 hpa

91 %

0.0 km/h aus 111

0.0 km/h aus ---

14.6 C

16.3 C

16.1 C

16.3 C

0 W/m

0.00 mm

22:45

16.0 C

1012.8 hpa

91 %

0.0 km/h aus 109

0.0 km/h aus ---

14.5 C

16.2 C

16.0 C

16.2 C

0 W/m

0.00 mm

22:50

15.9 C

1012.8 hpa

91 %

0.0 km/h aus 111

0.0 km/h aus ---

14.5 C

16.2 C

15.9 C

16.2 C

0 W/m

0.00 mm

22:55

15.9 C

1012.8 hpa

91 %

0.0 km/h aus 112

0.0 km/h aus ---

14.4 C

16.1 C

15.9 C

16.1 C

0 W/m

0.00 mm

23:00

15.8 C

1013.0 hpa

91 %

0.0 km/h aus 110

0.0 km/h aus ---

14.3 C

16.0 C

15.8 C

16.0 C

0 W/m

0.00 mm

23:05

15.8 C

1013.0 hpa

92 %

0.0 km/h aus 105

0.0 km/h aus ---

14.5 C

16.0 C

15.8 C

16.0 C

0 W/m

0.00 mm

23:10

15.7 C

1013.0 hpa

92 %

0.0 km/h aus 107

0.0 km/h aus ---

14.4 C

15.9 C

15.7 C

15.9 C

0 W/m

0.00 mm

23:15

15.7 C

1013.2 hpa

92 %

0.0 km/h aus 109

1.6 km/h aus SSW

14.4 C

15.9 C

15.7 C

15.9 C

0 W/m

0.00 mm

23:20

15.6 C

1013.2 hpa

92 %

0.0 km/h aus 110

1.6 km/h aus SSW

14.3 C

15.8 C

15.6 C

15.8 C

0 W/m

0.00 mm

23:25

15.6 C

1013.2 hpa

92 %

0.0 km/h aus 113

1.6 km/h aus SSW

14.3 C

15.8 C

15.6 C

15.8 C

0 W/m

0.00 mm

23:30

15.6 C

1013.1 hpa

92 %

0.0 km/h aus 114

0.0 km/h aus ---

14.3 C

15.8 C

15.6 C

15.8 C

0 W/m

0.00 mm

23:35

15.5 C

1013.1 hpa

93 %

0.0 km/h aus 105

1.6 km/h aus SSW

14.4 C

15.7 C

15.5 C

15.7 C

0 W/m

0.00 mm

23:40

15.4 C

1013.1 hpa

93 %

0.0 km/h aus 114

0.0 km/h aus ---

14.3 C

15.7 C

15.4 C

15.7 C

0 W/m

0.00 mm

23:45

15.3 C

1013.2 hpa

93 %

0.0 km/h aus 113

0.0 km/h aus ---

14.2 C

15.5 C

15.3 C

15.5 C

0 W/m

0.00 mm

23:50

15.3 C

1013.2 hpa

93 %

0.0 km/h aus 109

0.0 km/h aus ---

14.2 C

15.4 C

15.3 C

15.4 C

0 W/m

0.00 mm

23:55

15.3 C

1013.2 hpa

93 %

0.0 km/h aus 110

0.0 km/h aus ---

14.2 C

15.4 C

15.3 C

15.4 C

0 W/m

0.00 mm